Skip Page Navigation
NASA JPL Caltech
NASA Logo - Jet Propulsion Laboratory + View the NASA Portal
+ Center for Near-Earth Object Studies
JPL Home Earth Solar System Stars & Galaxies Technology
JPL Solar System Dynamics
BODIES ORBITS EPHEMERIDES TOOLS PHYSICAL DATA DISCOVERY FAQ SITE MAP

Significant website upgrade scheduled for September 27. More details available here.

JPL Small-Body Database Browser
Search: [ help ]  
192258 (2008 GB76)
Classification: Main-belt Asteroid          SPK-ID: 2192258
Ephemeris | Orbit Diagram | Orbital Elements | Mission Design | Physical Parameters | Discovery Circumstances | Close-Approach Data ]

[ show orbit diagram ]
Orbital Elements at Epoch 2459396.5 (2021-Jul-01.0) TDB
Reference: JPL 17 (heliocentric ecliptic J2000)
 Element Value Uncertainty (1-sigma)   Units 
e .0342991813919481 5.7154e-08  
a 2.757452913275959 1.8891e-08 au
q 2.662874535623751 1.6393e-07 au
i .7573915699417721 4.7335e-06 deg
node 300.819394334173 0.00040046 deg
peri 202.5753163497616 0.00040871 deg
M 13.74741945038688 7.9271e-05 deg
tp 2459332.632595472791
(2021-Apr-28.13259547)
0.00036835 TDB
period 1672.478657741697
4.58
1.7186e-05
4.705e-08
d
yr
n .2152493835025065 2.2119e-09 deg/d
Q 2.852031290928167 1.9538e-08 au
  Orbit Determination Parameters
   # obs. used (total)      297  
   data-arc span      8921 days (24.42 yr)  
   first obs. used      1996-09-17  
   last obs. used      2021-02-19  
   planetary ephem.      DE441  
   SB-pert. ephem.      SB441-N16  
   condition code      0  
   norm. resid. RMS      .56818  
   source      ORB  
   producer      Otto Matic  
   solution date      2021-Apr-13 22:15:21  

Additional Information
 Earth MOID = 1.67555 au 
 Jupiter MOID = 2.12983 au 
 T_jup = 3.342 
[ show covariance matrix ]

Ephemeris | Orbit Diagram | Orbital Elements | Mission Design | Physical Parameters | Discovery Circumstances | Close-Approach Data ]

Physical Parameter Table
Parameter Symbol Value Units Sigma Reference Notes
absolute magnitude H 16.77   n/a MPCxxxxx  

192258 (2008 GB76)          Discovered 2008-Apr-07 by Mt. Lemmon Survey at Mount Lemmon
Reference: 20080917/Numbers.arcLast Updated: 2008-09-19

[ show close-approach data ]
Alternate Designations
 2008 GB76 = 1996 SN2 
Ephemeris | Orbit Diagram | Orbital Elements | Mission Design | Physical Parameters | Discovery Circumstances | Close-Approach Data ]
ABOUT SSD CREDITS/AWARDS PRIVACY/COPYRIGHT GLOSSARY LINKS
FirstGov 2021-Sep-18 06:12 UT
(server date/time)  
NASA Home Page
Site Manager:   Ryan S. Park
Webmaster  Alan B. Chamberlin